GW2465 Weather Reports


Display with metric or nautical units.
time (UTC)temp
F
wind
direction
speed
MPH
gust
MPH
rain 1hr
in
rain 24hr
in
rain mn
in
humidity
%
barometer
mb
20260509233053 54 0 1.0 5.0 0.00 0.41 0.41 81 1009.4
20260509231605 54 200 0.0 4.0 0.00 0.41 0.41 81 1009.3
20260509230054 54 258 2.0 5.0 0.00 0.41 0.41 81 1009.1
20260509224548 55 207 1.0 4.0 0.00 0.41 0.41 83 1009.1
20260509223047 55 220 1.0 6.0 0.00 0.41 0.41 83 1009.4
20260509221542 55 0 1.0 4.0 0.00 0.41 0.41 85 1009.3
20260509220047 54 250 2.0 4.0 0.00 0.41 0.41 87 1009.3
20260509214548 53 0 2.0 4.0 0.01 0.41 0.41 88 1009.4
20260509213049 52 238 1.0 4.0 0.01 0.41 0.41 89 1009.4
20260509211552 52 222 1.0 5.0 0.01 0.41 0.41 89 1009.6
20260509210058 53 232 1.0 5.0 0.01 0.41 0.41 90 1009.6
20260509204549 53 176 3.0 9.0 0.00 0.41 0.40 91 1009.8
20260509203046 52 245 0.0 6.0 0.00 0.41 0.40 92 1009.8
20260509201556 51 281 2.0 5.0 0.01 0.41 0.40 93 1009.9
20260509200054 51 211 0.0 3.0 0.02 0.41 0.40 93 1009.9
20260509194547 50 211 1.0 3.0 0.04 0.41 0.40 93 1010.0
20260509193047 50 257 1.0 4.0 0.07 0.41 0.40 93 1010.1
20260509191546 50 212 1.0 4.0 0.08 0.40 0.39 93 1010.4
20260509190039 49 212 2.0 5.0 0.09 0.39 0.38 92 1010.7
20260509184552 49 227 3.0 7.0 0.12 0.37 0.36 92 1010.9
20260509183041 49 253 3.0 8.0 0.12 0.34 0.33 91 1011.1
20260509181549 49 209 3.0 12.0 0.12 0.32 0.31 91 1010.9
20260509180054 49 225 5.0 9.0 0.12 0.30 0.29 92 1010.9
20260509174548 49 205 1.0 5.0 0.11 0.25 0.24 93 1011.1
20260509173057 49 202 2.0 6.0 0.10 0.22 0.21 93 1011.1
20260509171549 49 196 2.0 5.0 0.10 0.20 0.19 93 1011.1
20260509170059 49 173 2.0 4.0 0.10 0.18 0.17 93 1011.2
20260509164547 49 205 2.0 5.0 0.06 0.14 0.13 92 1011.1
20260509163059 49 190 1.0 5.0 0.05 0.12 0.11 92 1011.2
20260509161550 49 211 2.0 5.0 0.03 0.10 0.09 91 1011.5
20260509160047 49 213 1.0 5.0 0.01 0.08 0.07 92 1011.5
20260509154543 49 178 1.0 5.0 0.02 0.08 0.07 91 1011.4
20260509153046 49 200 2.0 5.0 0.01 0.07 0.06 91 1011.5
20260509151548 49 185 1.0 4.0 0.02 0.07 0.06 91 1011.5
20260509150050 49 200 0.0 2.0 0.02 0.07 0.06 91 1011.4
20260509144547 49 0 0.0 0.0 0.02 0.06 0.05 91 1011.4
20260509143047 49 0 0.0 2.0 0.03 0.06 0.05 90 1011.1
20260509141546 49 164 0.0 5.0 0.03 0.05 0.04 89 1011.1
20260509140045 49 201 2.0 4.0 0.03 0.05 0.04 88 1011.6
20260509134549 49 210 0.0 4.0 0.02 0.04 0.03 87 1011.5
20260509133047 49 0 0.0 1.0 0.01 0.03 0.02 86 1011.2
20260509131549 49 0 0.0 3.0 0.00 0.02 0.01 85 1011.0
20260509130053 49 0 0.0 4.0 0.00 0.02 0.01 83 1011.1
20260509124554 49 176 0.0 5.0 0.00 0.02 0.01 82 1011.1
20260509123044 49 140 1.0 4.0 0.00 0.02 0.01 83 1010.9
20260509121557 49 119 0.0 4.0 0.00 0.02 0.01 83 1011.1
20260509120043 48 0 0.0 2.0 0.00 0.02 0.01 85 1011.3
20260509114554 48 121 0.0 2.0 0.00 0.02 0.01 86 1011.1
20260509113047 48 0 0.0 0.0 0.01 0.02 0.01 86 1011.1
20260509111542 48 0 0.0 0.0 0.01 0.02 0.01 86 1011.3
20260509110043 48 0 0.0 0.0 0.01 0.02 0.01 85 1011.2
20260509104537 48 0 0.0 2.0 0.01 0.02 0.01 84 1011.0
20260509103048 48 0 0.0 2.0 0.00 0.01 0.00 83 1011.1
20260509101545 48 121 0.0 2.0 0.00 0.01 0.00 83 1011.1
20260509100044 48 224 0.0 2.0 0.00 0.01 0.00 83 1010.9
20260509094550 48 0 0.0 4.0 0.00 0.02 0.00 84 1010.8
20260509093048 47 0 0.0 0.0 0.00 0.02 0.00 86 1010.9
20260509091552 47 144 0.0 3.0 0.00 0.02 0.00 85 1011.0
20260509090100 47 0 0.0 0.0 0.00 0.02 0.00 85 1011.2
20260509084547 47 0 0.0 0.0 0.00 0.02 0.00 85 1011.3
20260509083047 47 0 0.0 0.0 0.00 0.02 0.00 86 1011.6
20260509081547 47 0 0.0 0.0 0.00 0.02 0.00 87 1011.7
20260509080059 47 0 0.0 0.0 0.00 0.02 0.00 87 1012.0
20260509074545 47 0 0.0 0.0 0.00 0.02 0.00 88 1011.9
20260509073100 47 0 0.0 0.0 0.00 0.02 0.00 88 1011.9
20260509071542 47 0 0.0 0.0 0.00 0.02 0.00 88 1012.0
20260509070049 47 0 0.0 0.0 0.00 0.02 0.00 88 1012.0
20260509064546 47 0 0.0 0.0 0.00 0.02 0.00 87 1011.7
20260509063047 48 0 0.0 3.0 0.00 0.02 0.00 86 1011.9
20260509061544 48 323 1.0 4.0 0.00 0.02 0.00 86 1012.2
20260509060043 48 348 3.0 6.0 0.00 0.02 0.00 86 1012.2
20260509054539 48 0 0.0 0.0 0.00 0.04 0.00 84 1012.5
20260509053052 48 0 0.0 3.0 0.00 0.04 0.00 84 1012.8
20260509051547 48 0 0.0 2.0 0.00 0.04 0.00 86 1012.8
20260509050057 48 0 0.0 0.0 0.00 0.04 0.00 86 1012.6
20260509044540 48 0 0.0 3.0 0.00 0.04 0.00 84 1012.7
20260509043048 49 259 0.0 4.0 0.00 0.04 0.00 81 1012.3
20260509041550 49 0 0.0 3.0 0.00 0.04 0.00 82 1012.3
20260509040047 48 0 0.0 1.0 0.00 0.04 0.00 85 1012.4
20260509034539 47 0 0.0 1.0 0.00 0.04 0.04 87 1012.6
20260509033103 47 0 0.0 0.0 0.00 0.04 0.04 86 1012.6
20260509031549 48 0 0.0 0.0 0.00 0.04 0.04 86 1012.8
20260509030050 47 0 0.0 0.0 0.00 0.04 0.04 85 1013.1
20260509024542 47 0 0.0 0.0 0.00 0.04 0.04 85 1013.0
20260509023048 47 0 0.0 0.0 0.00 0.04 0.04 84 1012.6
20260509021547 47 0 0.0 0.0 0.00 0.04 0.04 84 1012.8
20260509020053 48 0 0.0 0.0 0.00 0.04 0.04 83 1012.8
20260509014543 49 0 0.0 0.0 0.00 0.04 0.04 80 1012.5
20260509013050 50 0 0.0 0.0 0.00 0.04 0.04 78 1012.5
20260509011602 50 0 0.0 0.0 0.00 0.04 0.04 78 1012.3
20260509010055 50 232 1.0 3.0 0.00 0.04 0.04 79 1012.2
20260509004600 49 0 0.0 0.0 0.00 0.04 0.04 84 1011.9
20260509003050 49 0 0.0 0.0 0.00 0.04 0.04 84 1011.9
20260509001546 49 0 0.0 0.0 0.00 0.04 0.04 85 1011.9
20260509000048 49 0 0.0 1.0 0.00 0.04 0.04 82 1011.6